User: anonymous   Login
Location: Fort Wayne
(41.1310°N, 85.1290°W)
Time: 11:31:29
(UTC-04:00)
Language:

Tiros 1 despin weight - Orbit

View from above orbital plane
View from above orbital plane
View from above satellite
View from above satellite

Ground track
Ground track

The orbit data is extracted from the following two-line orbital elements,

1 00115U 60002D   16121.97351997  .00000607  00000-0  10105-3 0  9999
2 00115  48.1670 324.0895 0034712  83.6902 276.7962 14.82756059989047
Epoch (UTC): 30 April 2016 23:21:52
Eccentricity: 0.0034712
inclination: 48.1670°
perigee height: 596 km
apogee height: 645 km
right ascension of ascending node: 324.0895°
argument of perigee: 83.6902°
revolutions per day: 14.82756059
mean anomaly at epoch: 276.7962°
orbit number at epoch: 98904

The dashed part of the orbit path shows where the satellite is in the earth's shadow,  

DLR